Regional Weather Roundup
Issued by NWS

Home | Current Version | Previous Version | Text Only | Print | Product List | Glossary On
Versions: 1 2 3 4 5 6 7 8 9 10 11 12 13 14 15 16 17 18 19 20 21 22 23 24 25 26 27 28 29 30 31 32 33 34 35 36 37 38 39 40 41 42 43 44 45 46 47 48 49 50
599
ASUS43 KLMK 272010
RWRKY
KENTUCKY REGIONAL WEATHER ROUNDUP
NATIONAL WEATHER SERVICE LOUISVILLE KY
400 PM EDT TUE JUN 27 2017

NOTE "FAIR" INDICATES FEW OR NO CLOUDS BELOW 12,000 FEET
WITH NO SIGNIFICANT WEATHER AND/OR OBSTRUCTIONS TO VISIBILITY.

KYZ001>023-026-027-061>063-070>075-272100-
WESTERN AND SOUTH CENTRAL KENTUCKY

CITY           SKY/WX    TMP DP  RH WIND       PRES   REMARKS
PADUCAH        SUNNY     80  55  42 E5        30.09F
HENDERSON      SUNNY     78  51  38 VRB3      30.11F
OWENSBORO      MOSUNNY   79  52  38 NW6       30.11F
HOPKINSVILLE   SUNNY     78  54  42 NE6       30.09F
BOWLING GREEN  MOSUNNY   79  54  41 CALM      30.11F
GLASGOW        PTSUNNY   76  52  42 E3        30.11F
$$

KYZ024-025-028>034-038-045-046-053-272100-
NORTH CENTRAL KENTUCKY

CITY           SKY/WX    TMP DP  RH WIND       PRES   REMARKS
LOUISVILLE/SDF MOSUNNY   79  47  32 VRB6      30.11F
LOUISVILLE/LOU MOSUNNY   77  47  34 NW6       30.11F
FORT KNOX      MOSUNNY   76  51  41 SW5       30.10F
$$

KYZ035>037-039>044-047>052-055>060-089>105-272100-
NORTHEAST KENTUCKY

CITY           SKY/WX    TMP DP  RH WIND       PRES   REMARKS
LEXINGTON      MOSUNNY   74  46  36 VRB7      30.13F
COVINGTON      PTSUNNY   71  50  47 N6        30.12F
FRANKFORT      SUNNY     75  45  34 VRB6      30.11F
$$

KYZ054-064>069-076>088-106>120-272100-
SOUTHEAST KENTUCKY

CITY           SKY/WX    TMP DP  RH WIND       PRES   REMARKS
JACKSON        PTSUNNY   74  47  38 NW8       30.13F
LONDON         MOSUNNY   77  45  32 NW9       30.13F
SOMERSET       SUNNY     75  46  35 W9        30.13F
MIDDLESBORO    MOSUNNY   76  51  41 W8        30.13F
MONTICELLO     CLEAR     77  52  41 N17       30.14F
$$





USA.gov is the U.S. government's official web portal to all federal, state and local government web resources and services.